User: anonymous   Login
Location: Unspecified
(0.0000°N, 0.0000°E)
Time: 12:48:41
(UTC+00:00)
Language:

TACSAT 4 - Orbit

View from above orbital plane
View from above orbital plane
View from above satellite
View from above satellite

Ground track
Ground track

The orbit data is extracted from the following two-line orbital elements,

1 37818U 11052A   17262.51745837  .00000398  00000-0  10578-2 0  9997
2 37818  63.2960  54.8008 4541592 214.2445 113.4930  6.02774196131594
Epoch (UTC): 19 September 2017 12:25:08
Eccentricity: 0.4541592
inclination: 63.2960°
perigee height: 583 km
apogee height: 12167 km
right ascension of ascending node: 54.8008°
argument of perigee: 214.2445°
revolutions per day: 6.02774196
mean anomaly at epoch: 113.4930°
orbit number at epoch: 13159

The dashed part of the orbit path shows where the satellite is in the earth's shadow,  

DLR